Location: Newark
(45.9456°N, 15.4064°E)
Time: 20:08:03
(UTC+00:00)

Vanguard 3 - Pass Details

Date: 29 January 2020
Orbit: 508 x 3263 km, 33.3° (Epoch: 22 February)

Event Time Altitude Azimuth Distance (km) Brightness Sun altitude
Rises 22:04:36 0° 277° (W) 6,943 12.2 -58.7°
Reaches altitude 10° 22:12:03 10° 261° (W) 5,496 11.4 -59.3°
Enters shadow 22:15:35 14° 250° (WSW) 4,895 11.0 -59.6°
Maximum altitude 22:20:10 16° 230° (SW) 4,317 - -60.0°
Drops below altitude 10° 22:26:37 10° 196° (SSW) 4,182 - -60.4°
Sets 22:31:05 0° 176° (S) 4,660 - -60.7°
